Theta_e
286 288 290 291 292 292 294 296 300 314 314 308 306 303 299 295 291 290 290 289 289 289 288 288 288 287 286 285 285 283 282 281
285 288 289 291 293 292 293 295 299 312 304 299 295 294 292 290 289 288 288 288 287 287 287 286 285 285 285 284 282 281 280 280
286 287 289 291 292 294 297 294 300 299 295 292 291 289 287 286 286 286 285 285 285 286 286 285 285 284 283 281 281 279 279 278
286 286 288 288 289 290 296 297 295 292 289 287 286 286 285 285 285 286 286 285 285 285 285 284 283 282 281 280 280 279 278 278
284 286 286 286 286 288 292 291 290 289 287 286 286 286 286 286 285 285 285 285 285 285 283 282 281 281 280 279 278 278 278 278
282 283 284 285 285 285 286 287 287 286 286 285 285 286 285 285 285 285 284 283 283 281 281 280 280 280 279 278 278 277 276 277
281 282 283 284 284 285 285 285 286 285 285 285 285 285 284 284 283 282 281 281 280 279 279 279 280 283 282 279 277 277 276 276
280 281 281 283 284 283 284 285 285 284 284 284 284 283 282 282 281 280 279 279 279 279 280 280 280 283 282 280 278 277 276 276
280 281 281 282 282 283 283 283 282 282 281 281 281 280 280 279 279 279 279 279 279 279 280 280 281 283 282 280 277 277 276 276
280 280 280 281 281 281 281 281 280 280 280 280 280 279 279 278 278 279 279 279 279 279 279 279 280 282 281 279 277 276 275 276
280 280 279 280 280 279 278 278 278 279 279 280 280 279 278 279 279 279 279 279 279 278 279 279 279 282 281 278 277 275 275 275
279 279 279 280 280 278 278 277 279 279 279 278 279 278 278 278 278 278 277 277 276 276 277 277 277 279 281 280 277 276 275 274
278 278 279 280 279 277 276 277 278 278 277 277 277 278 277 277 276 276 276 275 274 275 274 275 277 280 281 280 278 277 274 272
278 277 277 278 279 276 276 277 277 277 276 276 276 276 276 275 275 274 274 273 273 273 272 272 273 275 280 278 277 276 272 272
277 276 275 276 276 276 275 276 275 274 274 275 275 274 275 275 275 273 272 272 272 272 271 270 270 270 271 271 270 273 270 269
275 274 274 274 274 274 275 276 274 274 274 274 274 273 273 273 272 272 272 273 271 268 270 268 267 270 273 270 268 264 268 257
275 274 272 272 272 271 272 273 273 273 272 272 272 272 273 273 273 278 278 278 277 276 272 270 274 277 276 275 273 273 271 254
276 276 275 272 271 267 269 270 270 271 271 272 272 271 272 271 272 272 276 279 278 278 277 277 276 275 274 273 271 270 263 251
277 276 276 275 274 269 267 268 267 268 270 270 270 270 269 268 266 269 271 271 266 274 274 275 275 273 272 272 264 254 253 248
277 277 276 275 274 273 273 270 268 269 271 270 268 265 266 266 266 265 265 264 261 258 264 260 271 272 269 266 252 252 250 251
Wind_Speed
17 17 15 15 13 11 10 12 11 12 13 10 9 9 11 13 13 13 14 15 15 17 16 17 15 15 15 10 10 13 8 6
17 17 18 16 15 11 10 9 9 9 12 14 13 14 13 13 13 13 12 16 15 17 16 16 16 13 13 12 12 13 11 8
17 16 14 11 11 11 11 6 6 12 15 15 16 16 15 16 17 15 15 12 13 13 17 16 15 14 14 13 10 12 12 10
14 13 11 10 10 11 9 6 9 13 18 16 16 18 18 16 18 17 17 15 15 15 15 14 13 13 10 11 12 11 10 9
13 10 9 8 8 10 10 11 12 11 17 17 17 18 19 19 18 19 17 15 16 14 15 13 13 11 12 12 12 11 9 9
14 11 9 8 8 9 9 12 13 16 18 17 18 17 19 19 18 18 16 16 14 15 14 12 11 9 12 12 11 11 10 9
15 13 12 10 9 11 10 11 13 16 18 19 19 19 19 17 19 16 17 17 14 14 11 13 9 21 20 14 10 9 10 9
14 13 13 12 11 13 13 13 15 16 18 18 19 19 20 18 19 17 17 17 14 14 13 13 13 21 20 17 9 8 7 8
13 13 14 14 14 13 15 15 16 17 16 17 21 19 18 20 17 17 14 14 14 13 13 13 12 20 18 17 9 8 7 6
12 12 14 15 14 16 16 16 17 17 16 17 18 18 17 19 17 14 14 13 12 12 12 12 11 18 17 12 8 8 7 6
12 13 14 13 15 18 17 17 17 17 16 17 18 17 16 16 15 13 12 12 11 12 10 9 10 15 14 10 5 6 6 5
13 13 11 12 16 18 17 18 15 17 18 17 16 16 15 13 12 12 12 12 12 12 9 9 7 8 12 11 4 4 4 4
12 12 11 11 16 16 17 12 14 15 16 15 14 10 9 13 11 11 11 12 11 11 8 6 5 10 11 11 8 7 4 5
10 12 12 12 11 14 8 11 12 14 14 13 12 10 9 11 11 9 9 8 7 6 6 5 5 5 12 10 11 9 6 3
9 11 11 10 10 9 7 9 12 13 11 9 10 9 8 6 6 7 7 7 6 6 6 4 4 3 4 5 5 7 5 5
7 7 8 7 8 7 6 7 11 10 8 8 6 7 7 6 5 5 4 5 6 3 5 5 3 2 5 4 2 2 3 3
7 7 5 5 6 6 6 5 8 8 5 5 5 5 5 6 6 11 10 10 10 11 7 1 8 9 7 5 4 4 5 4
6 6 6 5 5 3 4 6 7 7 5 5 6 5 5 4 6 8 9 15 14 11 9 7 7 7 5 5 3 5 6 3
5 5 5 5 5 2 4 7 6 6 6 4 4 5 5 5 4 4 7 7 2 6 6 6 5 5 3 3 6 3 4 2
5 5 5 5 4 3 4 6 6 5 4 4 3 2 3 4 4 5 5 5 4 1 3 3 3 2 3 4 3 3 3 3
Wind_Direction
306 306 300 294 289 276 267 274 279 210 177 146 147 136 133 132 132 135 127 124 125 125 122 115 113 110 113 118 118 105 105 112
307 303 301 294 288 276 265 258 269 204 121 113 110 111 109 107 104 101 106 115 117 119 113 116 115 110 109 111 116 115 114 107
308 310 300 298 299 284 276 213 267 125 111 109 110 109 111 113 110 110 112 101 106 104 109 111 107 112 119 119 124 117 110 114
316 315 312 309 305 296 240 150 125 121 113 110 112 113 111 109 112 110 113 111 109 109 107 103 103 104 106 113 110 109 112 108
330 332 335 336 339 344 92 107 108 109 111 112 118 120 119 123 119 117 117 115 114 110 105 105 105 114 109 109 102 97 94 98
350 352 360 5 22 33 63 92 107 109 108 112 111 112 115 111 107 110 114 108 103 102 96 104 107 106 107 104 104 106 101 92
360 6 15 21 38 58 62 79 100 106 109 114 113 113 106 110 112 107 103 96 96 93 105 100 105 113 113 110 109 107 111 112
6 18 25 27 44 61 70 79 88 97 103 107 105 106 107 107 102 103 96 101 106 98 103 104 106 117 117 117 109 116 116 115
13 24 35 42 46 62 74 78 83 86 90 99 101 99 102 98 94 93 100 101 99 104 102 103 111 120 118 113 108 106 95 101
23 32 41 49 56 65 67 75 82 83 85 91 93 95 94 94 97 97 101 97 102 100 105 106 107 118 120 112 106 100 100 101
28 41 46 50 64 67 67 69 69 77 79 79 83 85 89 93 95 97 96 98 97 89 78 84 110 122 120 106 105 114 112 94
38 43 44 62 69 68 68 63 69 73 73 74 75 85 85 92 92 98 97 92 87 85 75 75 74 106 110 110 96 110 103 94
43 37 37 56 75 72 67 67 73 78 78 76 78 83 90 94 94 92 92 92 91 90 78 57 60 97 93 96 97 99 100 84
45 47 35 44 64 81 75 87 89 86 86 87 88 86 88 99 100 96 94 95 93 103 100 81 51 38 94 86 81 77 82 99
48 53 48 36 51 66 76 89 91 92 90 91 93 91 87 92 103 111 116 115 126 128 121 106 86 79 69 63 52 64 70 59
63 65 52 39 46 38 45 76 87 86 90 90 91 97 91 68 94 103 65 124 137 117 127 131 119 113 123 133 138 122 119 84
70 73 62 62 67 49 46 59 95 92 79 78 87 74 80 97 91 97 103 107 111 127 127 71 151 153 125 105 100 89 122 57
106 109 108 90 75 45 64 77 76 102 100 93 88 86 96 86 107 111 99 113 117 123 126 125 121 123 131 125 98 77 71 82
106 98 98 97 91 44 93 98 97 91 89 100 112 122 122 126 132 142 150 144 76 79 95 124 135 161 165 105 72 46 29 149
94 97 105 100 99 126 119 118 128 125 129 129 118 105 135 140 142 142 140 152 155 129 112 31 141 172 90 82 123 171 221 220